< < Back
Terminal Aerodrome Forecast


Current Version              Previous Versions:   1  2  3  4  5  6  7  8  9  

Terminal Aerodrome Forecast

979
FTUS42 KGSP 240500
TAFGSP
TAF
KGSP 240537Z 2406/2506 04006KT P6SM SKC
     FM241600 08007KT P6SM SKC
     FM241900 14006KT P6SM FEW250
     FM250500 13003KT P6SM BKN060=



Latest METAR

265
SAUS70 KWBC 241800 RRB
MTRGSP
METAR KGSP 241753Z 00000KT 10SM CLR 21/03 A3004 RMK AO2 SLP165 T02060028
10206 20106 58028


USA.gov is the U.S. government's official web portal to all federal, state and local government web resources and services.